Terminal Aerodrome Forecast
Issued by NWS

Home | Current Version | Previous Version | Text Only | Print | Product List | Glossary On
Versions: 1 2 3 4 5 6 7 8 9 10 11 12 13 14 15 16 17 18 19 20 21 22 23 24 25 26 27 28 29
000
FTUS45 KCYS 110549 CCA
TAFLAR
TAF COR
KLAR 110549Z 1106/1206 20008KT P6SM SKC
     FM110900 23014KT P6SM SCT250
     FM111500 25015G25KT P6SM SCT250
     FM120000 28011KT P6SM OVC080=

USA.gov is the U.S. government's official web portal to all federal, state and local government web resources and services.